Погода в Сете

Франция     43°24′38″N   3°40′40″E
темп.,
°C
ветер,
м/с
пор.,
м/с
влажн.,
%
обл.,
%
осадки,
мм/ч
давл.,
гПа
погр.,
м
23 октября, сб
сб2323:00+15сз35460 0.0 1021280
02:00+13сз22520 0.0 1021104
05:00+11ссз23480 0.0 1021160
08:00+10сз22440 0.0 1021121
11:00+13ссз11320 0.0 1023286
14:00+18ссв35250 0.0 1022941
17:00+19св56320 0.0 1021866
20:00+15св48440 0.0 1022342
24 октября, вс
вс2423:00+14ссв24470 0.0 1023179
02:00+13с23480 0.0 1023120
05:00+12ссв35500 0.0 1023161
08:00+12ссв35510 0.0 1023145
11:00+16св23450 0.0 1024234
14:00+19вюв22475 0.0 1024654
17:00+19ю22522 0.0 1023627
20:00+17зюз12610 0.0 102358
25 октября, пн
пн2523:00+16сз21680 0.0 102447
02:00+15ссз11720 0.0 102339
05:00+15с11740 0.0 102346
08:00+14ссз11760 0.0 102243
11:00+17зюз11655 0.0 1023258
14:00+19ююз33605 0.0 1022712
17:00+18ююз446674 0.0 1020351
20:00+17юз357742 0.0 1021220
26 октября, вт
вт2623:00+15зсз34671 0.0 1022121
02:00+14сз22535 0.0 102256
05:00+14зсз225955 0.0 102152
08:00+13сз23680 0.0 102173
11:00+17сз35555 0.0 1022338
14:00+21ссз143859 0.0 10201260
17:00+22ссз243473 0.0 10191559
20:00+18ссз35505 0.0 1021253
27 октября, ср
ср2723:00+16ссз24521 0.0 1021155
02:00+14сз12555 0.0 102172
05:00+13сз226051 0.0 102198
08:00+12сз2260100 0.0 102274
11:00+14сз1149100 0.0 1023279
14:00+18св243989 0.0 10221065
17:00+19всв23440 0.0 10201108
20:00+16в12560 0.0 1021142